[[{"header":{"parameterUnit":"m.s-1","parameterCategory":1,"la1":30.2991,"la2":30.254,"lo1":-89.0895,"lo2":-89.0444,"dy":0.0017,"dx":0.0017,"nx":28,"ny":28,"refTime":"2024-07-10T21:00:00:Z","depth":0,"parameterNumber":2,"parameterNumberName":"U-component_of_WINDS"},"data":[0,0,0,0,0,0,0,0,0,0,0,0,0,0,0,0,0,0,0,0,0,0,0,0,0,0,0,0,0,0,0,0,0,0,0,0,0,0,0,0,0,0,0,0,0,0,0,0,0,0,0,0,0,0,0,0,0,0,2.5114,2.5115,0,2.5166,2.5167,2.5167,2.514,2.5139,2.5138,2.5136,2.5188,2.519,2.5193,0,0,0,0,0,0,0,0,0,0,0,0,0,2.4992,2.4995,2.5114,2.5115,2.5115,2.5166,2.5167,2.5168,2.5141,2.5139,2.5137,2.5136,2.5187,2.519,2.5193,0,0,0,0,0,0,0,0,0,0,0,0,0,2.5045,2.4995,2.5114,2.5108,2.5108,2.5166,2.5167,2.5168,2.5141,2.5139,2.5137,2.5135,2.5186,2.519,2.5194,2.526,0,0,2.5206,2.5207,0,0,0,0,0,0,0,0,2.5042,2.5049,2.5108,2.5109,2.5109,2.5145,2.5143,2.5198,2.5141,2.5128,2.5136,2.5134,2.5175,2.518,2.5194,2.5262,2.5264,2.5206,2.5208,2.521,2.5211,0,0,0,0,0,0,0,2.5038,2.5047,2.5135,2.5109,2.511,2.5103,2.5108,2.5153,2.5163,2.5129,2.5128,2.5134,2.5175,2.519,2.5195,2.5265,2.5206,2.5209,2.5212,2.5213,2.5393,2.5396,0,0,0,0,0,0,2.5035,2.5044,2.5133,2.5136,2.507,2.5107,2.5113,2.5135,2.5162,2.5164,2.5136,2.5133,2.5184,2.519,2.5197,2.5277,2.521,2.5214,2.5216,2.5391,2.5394,2.5396,0,0,0,0,0,0,2.5032,2.5043,2.5131,2.509,2.51,2.5111,2.5137,2.5137,2.5153,2.5167,2.5168,2.515,2.5183,2.5191,2.5245,2.5279,2.5216,2.5219,2.5388,2.5392,2.5395,2.5439,0,0,0,0,0,0,2.5029,2.5042,2.5067,2.509,2.5103,2.5178,2.5139,2.514,2.516,2.5156,2.5181,2.5183,2.5182,2.5239,2.5249,2.5283,2.5222,2.5385,2.539,2.5394,2.5434,2.5443,2.5451,0,0,0,0,0,2.5025,2.5076,2.5068,2.5079,2.5134,2.518,2.5187,2.5186,2.5163,2.5188,2.5198,2.5182,2.5274,2.5245,2.5256,2.5291,2.5383,2.5388,2.5394,2.543,2.5441,2.5451,0,0,0,0,0,0,2.5054,2.5079,2.507,2.5131,2.5154,2.5175,2.5207,2.5197,2.5226,2.5221,2.5218,2.5224,2.5281,2.5292,2.5259,2.5359,2.5325,2.5333,2.5349,2.536,2.5368,2.5364,2.5226,0,0,0,0,0,2.5068,2.5104,2.5123,2.5175,2.5187,2.5195,2.5215,2.5213,2.5236,2.5245,2.5259,2.5282,2.5316,2.5339,2.5371,2.5436,2.5442,2.5467,2.5475,2.5482,2.5488,2.5526,2.5538,2.5414,2.5414,2.5414,0,0,2.5096,2.5114,2.5136,2.5181,2.5199,2.5236,2.5203,2.5244,2.5272,2.5251,2.5303,2.5315,2.534,2.5401,2.5429,2.5412,2.5524,2.5489,2.5494,2.5497,2.5533,2.5544,2.5555,2.5418,2.5417,2.5416,0,0,2.5167,2.5184,2.523,2.5249,2.5277,2.5283,2.5294,2.5318,2.5325,2.5378,2.5365,2.5398,2.5457,2.5477,2.5494,2.5578,2.5565,2.5589,2.5632,2.5669,2.5679,2.5687,2.5718,2.5729,2.5595,2.5595,2.5595,0,2.5198,2.5254,2.5254,2.5297,2.5318,2.5304,2.5351,2.5369,2.5406,2.5421,2.5402,2.5478,2.5494,2.556,2.5581,2.5596,2.5609,2.5585,2.5677,2.5686,2.5694,2.5723,2.5735,2.5598,2.5598,2.5597,2.5597,0,2.5292,2.5332,2.5366,2.5404,2.5428,2.5473,2.5481,2.5506,2.5503,2.5511,2.5567,2.5586,2.5624,2.5639,2.5635,2.5706,2.5695,2.5677,2.5643,2.5708,2.5736,2.5747,2.5602,2.5601,2.56,2.5599,0,0,2.5379,2.542,2.5432,2.5451,2.5483,2.5513,2.5559,2.5597,2.5619,2.5646,2.5684,2.5737,2.5721,2.5742,2.574,2.5773,2.584,2.5751,2.5752,2.5767,2.5921,2.5934,2.5947,2.5832,2.5834,2.5836,2.5919,0,2.5452,2.5532,2.5536,2.5608,2.5646,2.5635,2.5675,2.5699,2.571,2.5743,2.5754,2.5792,2.5768,2.5781,2.5813,2.5825,2.5871,2.5819,2.5868,2.587,2.5861,2.5961,2.5974,2.6051,2.593,2.5931,2.5933,0,2.5547,2.558,2.5657,2.5687,2.5703,2.5738,2.5775,2.5808,2.5836,2.5841,2.5867,2.5862,2.5909,2.5875,2.5941,2.5906,2.5927,2.5937,2.594,2.5943,2.5904,2.5968,2.6076,2.6087,2.595,2.5948,2.5947,0,2.5605,2.5667,2.5722,2.5739,2.5774,2.58,2.5816,2.5843,2.5866,2.5899,2.5915,2.5952,2.5972,2.6001,2.6007,2.5982,2.6074,2.604,2.608,2.608,2.6099,2.6097,2.6212,2.6113,2.6113,2.6113,2.6113,0,2.5686,2.5733,2.5749,2.5783,2.5837,2.5841,2.5895,2.5909,2.5934,2.5971,2.5964,2.5998,2.6004,2.6041,2.6046,2.6101,2.611,2.6116,2.6117,2.6116,2.6116,2.6129,2.6124,2.6116,2.6115,2.6115,2.6114,0,2.5757,2.5769,2.5829,2.586,2.5869,2.5907,2.5933,2.5966,2.5977,2.6025,2.6036,2.6053,2.6096,2.6105,2.6156,2.616,2.6225,2.622,2.6216,2.6215,2.6255,2.6251,2.6381,2.6399,2.6289,2.629,2.6291,0,2.5807,2.5845,2.588,2.5906,2.5923,2.5963,2.5989,2.5996,2.6022,2.606,2.6089,2.6132,2.6166,2.6235,2.6252,2.6292,2.6288,2.6331,2.6293,2.6293,2.6289,2.6287,2.6291,2.6338,2.6339,2.634,2.6341,0,2.5896,2.5902,2.5939,2.5979,2.601,2.6042,2.6072,2.6093,2.6105,2.6135,2.618,2.6207,2.6261,2.6303,2.6344,2.636,2.6353,2.6353,2.6364,2.6364,2.6359,2.6363,2.6235,2.6349,2.6348,2.6348,2.6347,2.6347,2.5959,2.5992,2.6024,2.6066,2.6091,2.612,2.6154,2.617,2.6208,2.6253,2.6255,2.6305,2.6335,2.6389,2.6409,2.6448,2.6434,2.6451,2.6455,2.6459,2.6463,2.6355,2.6455,2.6455,2.6455,2.6455,2.6454,0,2.6047,2.6068,2.6108,2.6152,2.6186,2.6178,2.6212,2.6241,2.6285,2.6315,2.635,2.6403,2.6446,2.6468,2.651,2.6537,2.6535,2.6548,2.6546,2.655,2.6472,2.6458,2.655,2.655,2.655,2.655,2.6549,2.6549,2.6097,2.6154,2.6164,2.6234,2.6255,2.6304,2.6325,2.6352,2.6377,2.6437,2.6473,2.6487,2.6515,2.656,2.6599,2.6605,2.6621,2.6636,2.6639,2.6565,2.6555,2.6546,2.6533,2.6639,2.6639,2.6714,2.6715,2.6716]},{"header":{"parameterUnit":"m.s-1","parameterCategory":1,"la1":30.2991,"la2":30.254,"lo1":-89.0895,"lo2":-89.0444,"dy":0.0017,"dx":0.0017,"nx":28,"ny":28,"refTime":"2024-07-10T21:00:00:Z","depth":0,"parameterNumber":3,"parameterNumberName":"V-component_of_WINDS"},"data":[0,0,0,0,0,0,0,0,0,0,0,0,0,0,0,0,0,0,0,0,0,0,0,0,0,0,0,0,0,0,0,0,0,0,0,0,0,0,0,0,0,0,0,0,0,0,0,0,0,0,0,0,0,0,0,0,0,0,0.5533,0.5535,0,0.5701,0.5703,0.5704,0.5833,0.5835,0.5836,0.5837,0.6007,0.601,0.6014,0,0,0,0,0,0,0,0,0,0,0,0,0,0.532,0.5323,0.5533,0.5535,0.5537,0.57,0.5703,0.5705,0.5833,0.5835,0.5836,0.5838,0.6006,0.601,0.6014,0,0,0,0,0,0,0,0,0,0,0,0,0,0.5442,0.5324,0.5532,0.5621,0.563,0.57,0.5703,0.5706,0.5833,0.5835,0.5837,0.5838,0.6005,0.601,0.6015,0.6009,0,0,0.603,0.6032,0,0,0,0,0,0,0,0,0.5435,0.545,0.5606,0.5615,0.5626,0.5748,0.569,0.5807,0.5832,0.5756,0.5837,0.5839,0.5919,0.5931,0.5959,0.6017,0.6025,0.6031,0.6034,0.6036,0.6037,0,0,0,0,0,0,0,0.5426,0.5443,0.5599,0.5608,0.562,0.5651,0.567,0.5713,0.5825,0.5763,0.5772,0.5791,0.5925,0.5954,0.5964,0.6027,0.603,0.6035,0.6038,0.604,0.6086,0.6084,0,0,0,0,0,0,0.5405,0.5435,0.5594,0.5604,0.5533,0.5653,0.5675,0.5707,0.5825,0.5845,0.5789,0.5796,0.5944,0.5958,0.597,0.597,0.6036,0.6041,0.6043,0.6088,0.6086,0.6084,0,0,0,0,0,0,0.5399,0.5417,0.5587,0.5523,0.5546,0.5655,0.569,0.5709,0.5738,0.5845,0.5865,0.5798,0.5946,0.5963,0.5998,0.5978,0.6043,0.6047,0.609,0.6087,0.6085,0.597,0,0,0,0,0,0,0.5393,0.5415,0.5415,0.5522,0.5549,0.5613,0.5689,0.5711,0.5747,0.5758,0.5859,0.5877,0.5949,0.599,0.6003,0.5986,0.6051,0.6092,0.6089,0.6086,0.5976,0.5964,0.5953,0,0,0,0,0,0.5385,0.5377,0.5415,0.5433,0.5552,0.5612,0.5627,0.5711,0.5745,0.5745,0.5813,0.5874,0.5978,0.5992,0.6008,0.5992,0.6094,0.609,0.6086,0.5982,0.5966,0.5954,0,0,0,0,0,0,0.5266,0.5392,0.5436,0.5462,0.5525,0.5633,0.5637,0.5692,0.5747,0.5755,0.5855,0.5876,0.59,0.595,0.5964,0.5992,0.6044,0.6042,0.5959,0.5945,0.5934,0.5921,0.6056,0,0,0,0,0,0.5242,0.5281,0.5389,0.5402,0.5431,0.5527,0.5557,0.5615,0.5684,0.5711,0.5782,0.5846,0.5893,0.5922,0.5971,0.5984,0.6006,0.5981,0.5969,0.5959,0.5957,0.5964,0.5953,0.607,0.607,0.607,0,0,0.5195,0.5269,0.5287,0.538,0.5435,0.5471,0.5549,0.5585,0.5612,0.5717,0.5754,0.5807,0.5885,0.5908,0.5922,0.595,0.5929,0.5954,0.5945,0.5949,0.5959,0.5948,0.5938,0.6068,0.6068,0.6068,0,0,0.5126,0.5187,0.5203,0.5256,0.5339,0.5403,0.5406,0.5506,0.5545,0.5584,0.5662,0.5695,0.5774,0.5826,0.5862,0.5808,0.5866,0.5822,0.5762,0.5768,0.5758,0.5751,0.573,0.5721,0.5819,0.5819,0.5819,0,0.5057,0.5115,0.5204,0.5234,0.5271,0.5367,0.5382,0.543,0.5524,0.5546,0.5577,0.5677,0.5736,0.5771,0.5757,0.5784,0.5789,0.5811,0.5753,0.5746,0.574,0.5721,0.5713,0.5813,0.5814,0.5814,0.5815,0,0.5024,0.5063,0.5066,0.5154,0.5191,0.5214,0.5304,0.5331,0.5385,0.5445,0.5481,0.5555,0.5619,0.5632,0.5686,0.5673,0.5688,0.5734,0.5788,0.5721,0.5705,0.5699,0.5804,0.5806,0.5808,0.581,0,0,0.4888,0.5022,0.5022,0.5061,0.5158,0.5189,0.5214,0.5277,0.5297,0.5358,0.5381,0.5444,0.5486,0.5527,0.5587,0.5592,0.5542,0.5638,0.5641,0.5616,0.553,0.5494,0.5484,0.558,0.5579,0.5579,0.5523,0,0.4834,0.4886,0.4965,0.499,0.5025,0.5114,0.5136,0.5197,0.5252,0.5289,0.5351,0.5393,0.5447,0.5472,0.5481,0.5546,0.5526,0.5551,0.5601,0.5601,0.5578,0.5476,0.5439,0.5384,0.5518,0.5517,0.5516,0,0.4779,0.4833,0.4862,0.4953,0.4971,0.4989,0.5051,0.5086,0.5155,0.5195,0.5238,0.5303,0.5332,0.538,0.5421,0.5436,0.546,0.5495,0.5495,0.5502,0.5554,0.548,0.5368,0.5359,0.5507,0.5508,0.5508,0,0.4674,0.4755,0.4782,0.4813,0.492,0.493,0.4975,0.5046,0.5078,0.5132,0.5153,0.5209,0.5239,0.5281,0.5357,0.5386,0.5388,0.5444,0.542,0.5418,0.5417,0.5416,0.5306,0.5434,0.5434,0.5434,0.5434,0,0.4605,0.4619,0.4736,0.4752,0.4768,0.4857,0.4871,0.4924,0.4986,0.5013,0.5093,0.5116,0.5217,0.5251,0.5311,0.5333,0.5347,0.5378,0.5394,0.5371,0.5367,0.5388,0.5394,0.5432,0.5432,0.5433,0.5433,0,0.4492,0.4571,0.4605,0.4703,0.4727,0.4735,0.4818,0.4836,0.4895,0.4928,0.4941,0.5033,0.5077,0.5157,0.5225,0.5265,0.5274,0.5302,0.5251,0.526,0.5232,0.5233,0.5132,0.5122,0.5255,0.5254,0.5253,0,0.4442,0.4454,0.4552,0.4576,0.4617,0.4655,0.4687,0.4774,0.4803,0.4881,0.4889,0.4939,0.4984,0.505,0.5122,0.5173,0.5202,0.5163,0.521,0.5185,0.5199,0.5197,0.5198,0.5152,0.515,0.5148,0.5147,0,0.4345,0.4383,0.4427,0.4482,0.4518,0.4566,0.4619,0.4633,0.4731,0.476,0.4806,0.484,0.4908,0.4956,0.5016,0.5061,0.5119,0.5131,0.5128,0.5105,0.5074,0.5088,0.522,0.5133,0.5135,0.5136,0.5137,0.5137,0.4262,0.4276,0.4346,0.439,0.4438,0.4484,0.4505,0.4566,0.4606,0.4667,0.4716,0.4757,0.4822,0.491,0.4951,0.4983,0.5011,0.5007,0.5006,0.5003,0.4993,0.5068,0.4994,0.4995,0.4995,0.4996,0.4996,0,0.4168,0.4217,0.4257,0.4326,0.436,0.4412,0.4472,0.4496,0.4532,0.4588,0.463,0.468,0.4726,0.4801,0.4852,0.4863,0.4891,0.4874,0.4874,0.4882,0.4966,0.4963,0.485,0.485,0.485,0.485,0.485,0.485,0.4123,0.4148,0.4193,0.4241,0.429,0.4331,0.436,0.4402,0.4447,0.45,0.4539,0.4587,0.465,0.4706,0.4749,0.477,0.4784,0.4758,0.4787,0.4863,0.4877,0.489,0.4887,0.4761,0.4761,0.4701,0.47,0.47]}]]